Weather History for Owatonna, MN

Change the Weather History Date:

Tuesday, February 21, 2012

  Actual Average Record
Temperature  
Mean Temperature 34 °F -  
Max Temperature 35 °F 33 °F 56 °F (1981)
Min Temperature 32 °F 14 °F -23 °F (2001)
Degree Days  
Heating Degree Days 32    
Moisture  
Dew Point 30 °F    
Average Humidity 83    
Maximum Humidity 100    
Minimum Humidity 70    
Precipitation  
Precipitation 0.00 in - - ()
Sea Level Pressure  
Sea Level Pressure 29.57 in    
Wind  
Wind Speed 16 mph (WSW)    
Max Wind Speed 22 mph    
Max Gust Speed 29 mph    
Visibility 8 miles    
Events Rain , Snow    
Averages and records for this station are not official NWS values.
T = Trace of Precipitation, MM = Missing Value Source: NWS Daily Summary

Daily Weather History Graph

Daily Weather History Graph

Search for Another Location

Airport:

Trip Planner

Search our weather history database for the weather conditions in past years. The results will help you decide how hot, cold, wet, or windy it might be!

Date:

Astronomy

Feb. 21, 2012 Rise Set
Actual Time 7:03 AM CST 5:50 PM CST
Civil Twilight 6:34 AM CST 6:19 PM CST
Nautical Twilight 6:00 AM CST 6:53 PM CST
Astronomical Twilight 5:27 AM CST 7:26 PM CST
Moon 6:31 AM CST (2/21) 5:59 PM CST (2/21)
Length of Visible Light 11h 44m
Length of Day
10h 46m
Waning Crescent, 0% of the Moon is Illuminated
Feb 21
Waning Crescent
Feb 21
New
Feb 29
First Quarter
Mar 8
Full
Mar 14
Last Quarter

Hourly Weather History & Observations

Time (CST) Temp. Windchill Dew Point Humidity Pressure Visibility Wind Dir Wind Speed Gust Speed Precip Events Conditions
12:13 AM 35.6 °F 25.5 °F 32.0 °F 87% 29.60 in 5.0 mi SSE 17.3 mph - N/A   Light Drizzle
12:33 AM 35.6 °F 25.2 °F 32.0 °F 87% 29.60 in 5.0 mi SSE 18.4 mph - N/A Rain Light Rain
12:54 AM 35.6 °F 25.5 °F 32.0 °F 87% 29.58 in 7.0 mi SSE 17.3 mph 26.5 mph N/A Rain Light Rain
1:13 AM 35.6 °F 24.8 °F 32.0 °F 87% 29.58 in 7.0 mi South 19.6 mph 25.3 mph N/A Rain Light Rain
1:33 AM 35.6 °F 24.5 °F 32.0 °F 87% 29.58 in 7.0 mi SSE 20.7 mph 25.3 mph N/A   Overcast
1:54 AM 35.6 °F 24.8 °F 33.8 °F 93% 29.57 in 3.0 mi South 19.6 mph 24.2 mph N/A Snow Snow
2:14 AM 35.6 °F 26.2 °F 33.8 °F 93% 29.56 in 4.0 mi SSE 15.0 mph 20.7 mph N/A Snow Light Snow
2:33 AM 35.6 °F 24.8 °F 33.8 °F 93% 29.54 in 5.0 mi SSE 19.6 mph 24.2 mph N/A Snow Light Snow
2:54 AM 35.6 °F 26.6 °F 33.8 °F 93% 29.54 in 5.0 mi South 13.8 mph 19.6 mph N/A Snow Light Snow
3:14 AM 35.6 °F 25.9 °F 33.8 °F 93% 29.52 in 5.0 mi South 16.1 mph 21.9 mph N/A Snow Light Snow
3:33 AM 35.6 °F 26.6 °F 33.8 °F 93% 29.52 in 7.0 mi South 13.8 mph - N/A   Overcast
3:54 AM 35.6 °F 27.5 °F 33.8 °F 93% 29.51 in 5.0 mi South 11.5 mph - N/A   Overcast
4:14 AM 35.6 °F 27.1 °F 33.8 °F 93% 29.51 in 5.0 mi SSW 12.7 mph - N/A   Overcast
4:33 AM 35.6 °F 26.2 °F 33.8 °F 93% 29.51 in 7.0 mi SSW 15.0 mph - N/A   Overcast
4:54 AM 35.6 °F 27.1 °F 33.8 °F 93% 29.52 in 3.0 mi SW 12.7 mph - N/A   Overcast
5:14 AM 35.6 °F 25.5 °F 33.8 °F 93% 29.52 in 2.5 mi WSW 17.3 mph - N/A   Overcast
5:33 AM 35.6 °F 26.2 °F 33.8 °F 93% 29.52 in 4.0 mi West 15.0 mph - N/A   Overcast
5:54 AM 33.8 °F 23.5 °F 33.8 °F 100% 29.53 in 10.0 mi West 16.1 mph - N/A   Overcast
6:33 AM 33.8 °F 23.9 °F 32.0 °F 93% 29.53 in 10.0 mi West 15.0 mph - N/A   Overcast
7:14 AM 35.6 °F 27.1 °F 32.0 °F 87% 29.53 in 10.0 mi West 12.7 mph - N/A   Overcast
7:34 AM 35.6 °F 26.6 °F 32.0 °F 87% 29.54 in 10.0 mi West 13.8 mph 18.4 mph N/A   Overcast
7:53 AM 35.6 °F 27.1 °F 32.0 °F 87% 29.55 in 10.0 mi West 12.7 mph - N/A   Overcast
8:33 AM 35.6 °F 27.5 °F 32.0 °F 87% 29.57 in 10.0 mi West 11.5 mph - N/A   Overcast
8:53 AM 35.6 °F 26.6 °F 32.0 °F 87% 29.57 in 10.0 mi West 13.8 mph - N/A   Overcast
9:14 AM 35.6 °F 27.1 °F 32.0 °F 87% 29.58 in 10.0 mi West 12.7 mph 18.4 mph N/A   Overcast
9:35 AM 35.6 °F 28.0 °F 32.0 °F 87% 29.58 in 10.0 mi WSW 10.4 mph - N/A   Overcast
9:54 AM 35.6 °F 27.1 °F 32.0 °F 87% 29.58 in 10.0 mi WSW 12.7 mph - N/A   Overcast
10:14 AM 35.6 °F 25.5 °F 30.2 °F 81% 29.58 in 10.0 mi WSW 17.3 mph 20.7 mph N/A   Overcast
10:34 AM 35.6 °F 24.8 °F 30.2 °F 81% 29.58 in 10.0 mi WSW 19.6 mph - N/A   Overcast
10:54 AM 35.6 °F 26.6 °F 30.2 °F 81% 29.58 in 10.0 mi West 13.8 mph - N/A   Overcast
11:13 AM 35.6 °F 26.2 °F 30.2 °F 81% 29.58 in 10.0 mi WSW 15.0 mph - N/A   Mostly Cloudy
11:33 AM 35.6 °F 25.2 °F 30.2 °F 81% 29.59 in 10.0 mi West 18.4 mph 25.3 mph N/A   Overcast
11:53 AM 35.6 °F 25.9 °F 30.2 °F 81% 29.59 in 10.0 mi West 16.1 mph 23.0 mph N/A   Overcast
12:13 PM 35.6 °F 25.5 °F 30.2 °F 81% 29.59 in 10.0 mi West 17.3 mph 23.0 mph N/A   Overcast
12:33 PM 35.6 °F 25.2 °F 30.2 °F 81% 29.58 in 10.0 mi West 18.4 mph 25.3 mph N/A   Overcast
12:54 PM 35.6 °F 26.6 °F 30.2 °F 81% 29.58 in 10.0 mi West 13.8 mph - N/A   Overcast
1:14 PM 35.6 °F 25.5 °F 30.2 °F 81% 29.57 in 10.0 mi West 17.3 mph 20.7 mph N/A   Overcast
1:34 PM 35.6 °F 24.2 °F 30.2 °F 81% 29.57 in 10.0 mi West 21.9 mph - N/A   Overcast
2:34 PM 33.8 °F 22.8 °F 28.4 °F 81% 29.58 in 10.0 mi West 18.4 mph 24.2 mph N/A   Overcast
2:53 PM 33.8 °F 22.8 °F 28.4 °F 81% 29.58 in 10.0 mi West 18.4 mph 24.2 mph N/A   Overcast
3:13 PM 35.6 °F 25.9 °F 28.4 °F 75% 29.59 in 10.0 mi West 16.1 mph 23.0 mph N/A   Overcast
3:33 PM 35.6 °F 25.2 °F 28.4 °F 75% 29.59 in 10.0 mi West 18.4 mph 28.8 mph N/A   Overcast
3:54 PM 35.6 °F 24.5 °F 28.4 °F 75% 29.59 in 10.0 mi West 20.7 mph - N/A   Overcast
4:14 PM 35.6 °F 25.9 °F 28.4 °F 75% 29.59 in 10.0 mi West 16.1 mph - N/A   Overcast
4:34 PM 35.6 °F 25.5 °F 28.4 °F 75% 29.59 in 10.0 mi West 17.3 mph 21.9 mph N/A   Overcast
4:54 PM 35.6 °F 25.5 °F 26.6 °F 70% 29.60 in 10.0 mi West 17.3 mph 23.0 mph N/A   Overcast
5:13 PM 35.6 °F 24.8 °F 26.6 °F 70% 29.60 in 10.0 mi West 19.6 mph 27.6 mph N/A   Overcast
5:33 PM 33.8 °F 22.8 °F 26.6 °F 75% 29.61 in 10.0 mi West 18.4 mph 24.2 mph N/A   Mostly Cloudy
6:14 PM 33.8 °F 25.8 °F 26.6 °F 75% 29.62 in 10.0 mi West 10.4 mph - N/A   Overcast
6:33 PM 33.8 °F 23.9 °F 24.8 °F 70% 29.62 in 10.0 mi West 15.0 mph - N/A   Overcast
6:53 PM 33.8 °F 25.3 °F 24.8 °F 70% 29.62 in 10.0 mi West 11.5 mph - N/A   Overcast
7:13 PM 33.8 °F 25.3 °F 24.8 °F 70% 29.62 in 10.0 mi WSW 11.5 mph - N/A   Overcast
7:34 PM 33.8 °F 27.0 °F 26.6 °F 75% 29.61 in 10.0 mi WSW 8.1 mph - N/A   Overcast
7:53 PM 33.8 °F 27.0 °F 26.6 °F 75% 29.61 in 10.0 mi WSW 8.1 mph - N/A   Overcast
8:13 PM 32.0 °F 24.8 °F 26.6 °F 80% 29.61 in 10.0 mi WSW 8.1 mph - N/A   Mostly Cloudy
8:33 PM 32.0 °F 24.2 °F 26.6 °F 80% 29.61 in 10.0 mi WSW 9.2 mph - N/A   Clear
8:53 PM 32.0 °F 22.5 °F 26.6 °F 80% 29.61 in 10.0 mi WSW 12.7 mph - N/A   Scattered Clouds
9:13 PM 32.0 °F 22.5 °F 28.4 °F 87% 29.61 in 10.0 mi WSW 12.7 mph - N/A   Overcast
9:33 PM 33.8 °F 24.8 °F 28.4 °F 81% 29.60 in 10.0 mi WSW 12.7 mph - N/A Snow Light Snow
9:54 PM 32.0 °F 24.8 °F 30.2 °F 93% 29.60 in 10.0 mi West 8.1 mph - N/A Snow Light Snow
10:13 PM 32.0 °F 26.4 °F 28.4 °F 87% 29.59 in 10.0 mi West 5.8 mph - N/A   Overcast
10:34 PM 30.2 °F 23.4 °F 28.4 °F 93% 29.60 in 5.0 mi WSW 6.9 mph - N/A Snow Light Snow
10:53 PM 30.2 °F 21.9 °F 28.4 °F 93% 29.59 in 10.0 mi WSW 9.2 mph - N/A   Mostly Cloudy
11:33 PM 30.2 °F 21.3 °F 28.4 °F 93% 29.58 in 10.0 mi WSW 10.4 mph - N/A Snow Light Snow
11:54 PM 30.2 °F 21.9 °F 28.4 °F 93% 29.57 in 1.5 mi WSW 9.2 mph - N/A Snow Light Snow